Wind_Speed
44 44 44 44 44 44 44 44 43 43 43 42 42 41 40 40 40 40 40 41 41 41 41 41 41 41 41 42 42 43 44 45 46 47 48 49 51 52 54 56 59 58
47 47 47 47 46 46 46 46 45 45 45 44 44 43 42 42 42 42 42 42 43 43 43 43 43 43 43 43 44 44 45 46 47 48 49 50 51 52 53 56 59 60
49 49 49 49 49 49 49 48 47 47 47 47 46 46 45 44 44 43 43 44 44 45 45 45 45 45 45 45 45 46 46 47 47 48 49 50 51 52 53 54 58 61
50 50 50 50 50 51 51 51 50 49 49 49 49 49 48 48 46 46 45 46 46 46 47 47 47 47 47 47 47 47 48 48 48 49 50 50 51 51 52 54 56 60
51 51 51 51 51 52 52 52 52 51 51 51 51 51 51 50 50 49 49 48 48 48 49 49 49 49 49 50 50 50 49 50 50 50 51 51 52 52 52 53 55 57
53 52 52 52 53 53 53 53 53 53 53 53 54 54 53 53 53 53 52 52 51 50 50 51 51 51 52 52 52 52 52 52 52 52 53 53 53 54 54 54 55 56
56 55 54 54 54 54 54 54 54 54 54 55 56 56 56 55 55 55 55 55 55 54 53 53 53 54 54 55 55 55 55 55 55 54 55 55 55 56 57 56 57 57
59 58 58 57 56 56 56 55 55 55 56 56 57 58 58 58 58 58 58 58 57 57 57 56 56 56 56 57 58 58 57 57 57 57 57 57 58 58 58 58 58 59
61 61 61 61 60 59 59 58 58 57 58 58 59 59 59 59 59 60 60 60 60 60 60 60 60 60 60 60 60 60 60 60 59 59 59 60 60 60 60 60 60 61
62 63 63 63 63 62 62 62 62 62 62 62 61 61 61 61 61 61 62 62 63 63 63 63 63 63 64 64 64 63 63 63 62 62 63 63 62 62 62 62 63 63
61 63 63 63 63 63 63 64 65 65 66 65 64 64 64 63 63 63 63 64 65 65 65 66 66 67 67 68 68 67 66 66 65 66 66 66 65 65 65 65 66 66
59 60 61 61 61 61 62 65 66 67 67 67 67 68 68 66 65 66 66 66 66 67 68 69 69 69 70 70 71 70 70 69 69 69 70 69 69 69 69 69 68 69
59 59 59 59 59 58 60 62 65 66 67 68 68 69 69 68 69 70 70 70 70 70 70 71 71 71 72 72 73 73 73 73 73 74 74 73 73 72 72 72 72 72
60 59 58 58 58 58 59 61 63 65 65 66 67 69 68 68 70 72 72 71 72 73 74 74 73 73 73 74 75 76 76 76 76 77 77 77 77 76 76 76 76 76
61 60 58 58 58 58 59 61 62 63 63 63 64 65 65 65 66 67 68 70 72 73 75 77 77 77 76 77 77 78 78 79 79 80 80 80 80 80 80 80 80 80
63 62 61 60 59 60 60 61 62 62 62 63 63 62 62 62 60 59 62 66 70 72 74 76 78 79 80 80 79 79 80 81 81 81 82 82 83 83 83 84 84 84
65 65 64 63 63 62 63 63 64 63 63 63 63 62 62 62 62 60 60 62 67 71 73 75 76 78 81 81 81 82 82 83 83 83 83 84 84 85 86 87 88 88
68 67 67 66 66 66 65 65 65 66 66 65 65 63 63 64 65 64 63 64 67 71 74 76 77 78 79 81 82 83 84 84 85 85 86 86 86 87 88 89 90 90
70 69 69 69 69 69 68 68 67 68 68 68 67 66 66 67 67 66 66 67 69 71 73 76 77 77 78 79 81 83 85 86 87 87 88 89 89 90 91 91 91 91
72 71 71 72 71 71 71 70 70 70 70 70 69 68 68 68 68 68 69 69 69 71 72 74 75 76 77 77 79 81 84 86 88 89 90 91 91 93 94 94 94 93
73 73 73 74 74 73 73 73 73 73 72 71 71 71 70 70 70 70 71 70 70 70 71 72 73 74 75 76 77 79 82 84 86 88 90 91 93 94 95 95 96 95
75 75 74 74 75 75 75 75 74 74 73 73 72 72 72 72 72 72 72 72 71 71 71 71 71 72 73 75 76 78 80 82 84 87 89 91 93 94 95 95 95 96
77 76 76 75 76 75 76 76 75 74 74 74 74 73 73 72 72 72 72 72 71 71 71 71 72 72 73 74 75 77 79 81 83 85 87 89 91 93 94 95 95 95
78 78 77 77 77 77 77 76 76 75 75 74 74 74 73 73 73 72 72 71 71 71 72 72 73 73 73 73 75 76 78 80 81 83 85 87 89 91 93 94 95 95
78 78 78 78 78 78 78 77 77 76 76 75 74 74 73 73 73 72 72 72 72 72 72 73 73 73 73 74 74 76 77 78 80 81 83 84 86 88 90 92 94 95
78 78 78 78 78 78 78 78 77 77 77 76 75 75 74 73 73 73 72 72 72 72 73 73 73 74 74 74 74 75 75 77 79 80 81 82 84 86 88 90 92 93
Wind_Direction
247 247 248 249 250 252 253 253 253 253 252 252 251 249 247 245 244 243 242 240 239 239 239 240 240 241 241 241 240 239 237 236 235 235 234 233 232 232 229 224 222 223
247 247 247 248 249 250 250 251 251 252 252 252 251 251 250 249 247 245 243 242 241 240 240 240 240 240 241 241 241 240 239 238 237 236 236 235 234 233 233 229 226 224
248 248 247 247 247 248 248 249 249 249 250 250 250 251 251 251 249 248 246 244 243 242 241 240 240 240 240 241 241 241 240 240 239 239 238 238 237 235 235 233 230 229
250 250 249 248 248 248 248 248 248 248 248 249 249 249 249 250 250 250 249 247 245 244 243 242 241 241 241 241 241 241 241 240 240 240 240 240 239 238 237 236 234 233
252 251 250 250 249 249 248 248 248 248 248 248 248 248 248 248 249 249 249 249 247 246 245 244 243 243 242 242 241 241 241 241 240 240 241 241 241 240 239 238 237 236
254 253 252 251 251 251 250 250 249 249 248 248 248 248 248 247 248 248 248 248 248 247 246 246 245 245 244 244 243 242 241 241 241 241 240 241 241 241 241 240 239 239
256 255 254 253 252 252 252 251 250 250 249 249 248 248 248 247 247 248 248 248 247 247 247 246 246 246 246 246 245 243 242 241 241 241 241 241 241 241 241 241 241 240
256 256 255 254 253 253 253 252 251 251 251 250 250 249 248 247 247 247 248 248 247 247 247 246 246 246 246 247 246 245 244 243 242 242 242 242 242 242 242 242 242 242
258 257 256 256 254 253 253 252 251 251 251 250 250 250 250 249 248 247 247 247 247 247 247 246 247 247 247 247 247 246 246 245 244 244 243 243 243 243 243 243 243 243
257 256 256 256 255 254 253 253 252 251 250 250 249 249 249 249 249 248 247 247 247 247 247 247 246 246 246 247 246 246 246 246 246 245 245 244 244 243 243 243 242 242
255 255 255 255 255 255 254 254 253 252 251 250 250 250 249 248 249 249 249 248 248 247 247 247 246 246 246 246 246 246 246 246 246 246 246 246 245 245 245 244 243 243
255 255 255 255 254 254 254 254 253 252 252 251 250 250 250 250 249 249 249 248 248 248 247 247 246 246 247 247 247 246 246 246 247 247 247 247 247 246 246 246 246 245
257 256 255 255 255 254 254 255 253 252 251 251 250 250 250 250 250 250 250 249 249 248 248 247 247 247 247 247 247 247 247 246 247 247 247 247 247 247 247 247 247 247
260 258 257 257 257 255 254 255 255 254 253 252 251 251 250 250 250 251 251 251 250 250 250 249 248 247 247 247 247 247 247 247 246 247 247 247 247 248 248 248 248 248
262 261 260 259 258 258 257 256 256 256 256 255 254 253 252 250 251 252 252 252 252 252 252 251 250 249 248 248 247 248 248 247 247 247 247 248 248 248 248 248 248 248
262 262 262 261 260 259 259 259 258 258 258 257 256 255 253 251 250 252 252 252 252 252 253 253 253 252 251 249 249 249 249 248 248 248 248 248 248 249 248 248 248 248
262 262 262 262 261 260 260 260 260 260 259 259 258 257 256 253 250 249 250 251 251 250 249 250 251 252 252 251 250 250 250 250 250 249 249 249 249 249 249 249 249 249
263 263 262 262 262 261 261 260 261 261 261 260 259 258 258 256 254 251 250 251 251 251 250 249 249 250 252 253 252 252 251 251 251 251 251 250 250 250 250 250 250 250
262 262 262 262 262 262 262 261 261 261 261 261 261 260 259 258 257 256 254 252 252 253 253 253 252 251 252 253 254 254 254 253 253 252 252 251 251 251 251 250 250 251
260 260 260 261 261 261 261 261 261 261 260 260 261 260 260 259 259 258 257 256 255 254 255 255 255 254 253 253 253 254 255 255 255 255 254 253 252 252 252 252 252 251
260 259 259 260 260 260 260 260 260 260 260 260 260 260 260 260 260 260 259 258 257 257 257 257 257 256 256 255 254 254 254 255 256 256 256 256 255 254 253 253 253 253
261 261 261 260 260 261 261 260 260 260 261 261 261 260 260 260 260 260 261 260 260 260 259 259 258 258 257 256 256 255 255 254 255 255 256 256 256 256 256 255 254 254
263 262 262 262 262 262 262 262 262 262 262 261 261 261 261 261 261 261 261 261 262 261 261 261 260 259 258 257 257 256 255 254 254 254 255 255 256 257 258 258 257 256
262 262 262 262 262 262 262 263 263 263 263 262 262 262 262 262 262 262 262 262 262 262 261 261 260 259 259 259 258 258 257 256 256 255 255 255 256 256 258 259 259 259
260 260 261 261 261 261 261 262 262 262 263 263 263 263 263 263 263 263 263 262 262 262 262 261 261 261 260 259 259 258 259 259 259 258 257 257 256 256 257 257 259 260
259 259 259 259 260 260 260 260 261 261 262 262 263 263 263 263 263 263 263 263 263 263 263 263 262 262 261 260 260 260 260 260 260 260 259 259 258 257 257 257 257 258
Height
10566 10567 10568 10568 10568 10569 10569 10571 10572 10573 10574 10575 10576 10577 10579 10580 10581 10582 10583 10584 10585 10586 10587 10589 10590 10592 10593 10595 10596 10598 10599 10601 10603 10605 10607 10608 10610 10612 10615 10617 10620 10622
10560 10561 10562 10562 10563 10563 10563 10564 10566 10567 10568 10570 10571 10573 10574 10575 10576 10577 10578 10579 10580 10581 10582 10583 10584 10586 10587 10589 10590 10592 10593 10595 10597 10599 10601 10603 10605 10607 10609 10611 10613 10616
10553 10554 10555 10556 10557 10557 10557 10558 10560 10561 10562 10564 10565 10567 10568 10569 10571 10572 10573 10574 10575 10576 10577 10578 10579 10580 10581 10582 10584 10585 10587 10589 10591 10593 10595 10597 10599 10601 10603 10605 10607 10609
10546 10547 10549 10550 10551 10551 10551 10552 10554 10555 10556 10558 10559 10561 10562 10563 10565 10566 10567 10568 10570 10571 10571 10572 10573 10574 10575 10576 10577 10579 10581 10583 10584 10586 10588 10590 10593 10595 10597 10599 10601 10603
10539 10540 10542 10543 10544 10544 10545 10546 10548 10549 10550 10551 10552 10554 10555 10557 10558 10559 10560 10562 10563 10564 10566 10567 10568 10569 10570 10570 10571 10573 10574 10576 10578 10579 10581 10584 10586 10588 10590 10592 10594 10596
10531 10533 10534 10535 10536 10537 10538 10540 10542 10543 10544 10545 10545 10546 10548 10549 10551 10552 10553 10554 10556 10557 10559 10560 10561 10563 10563 10564 10565 10566 10568 10569 10571 10573 10575 10576 10578 10580 10582 10584 10586 10588
10522 10525 10527 10528 10529 10529 10531 10533 10534 10535 10536 10537 10537 10538 10540 10542 10543 10544 10545 10547 10548 10550 10552 10553 10554 10555 10556 10557 10558 10559 10561 10562 10564 10566 10568 10569 10571 10572 10574 10576 10579 10581
10515 10516 10518 10519 10521 10522 10523 10525 10527 10528 10529 10529 10529 10530 10532 10534 10536 10537 10538 10539 10541 10543 10545 10546 10547 10548 10549 10549 10550 10552 10554 10555 10558 10559 10561 10562 10564 10565 10568 10570 10572 10574
10507 10507 10508 10510 10512 10514 10515 10517 10518 10519 10520 10521 10522 10523 10525 10526 10528 10529 10531 10532 10533 10535 10537 10539 10540 10540 10541 10541 10542 10543 10545 10548 10550 10551 10552 10554 10556 10558 10561 10563 10565 10566
10497 10497 10499 10501 10503 10504 10506 10508 10509 10510 10510 10512 10513 10515 10516 10517 10519 10521 10523 10524 10525 10527 10529 10530 10531 10532 10532 10532 10533 10535 10538 10540 10541 10543 10544 10545 10547 10550 10551 10553 10555 10556
10487 10487 10489 10492 10493 10495 10496 10498 10499 10500 10501 10503 10505 10506 10507 10509 10511 10513 10514 10515 10516 10518 10519 10520 10521 10522 10522 10523 10525 10527 10530 10532 10533 10534 10535 10537 10539 10541 10542 10543 10545 10546
10477 10478 10480 10482 10484 10486 10486 10486 10488 10490 10492 10495 10497 10497 10498 10502 10504 10503 10503 10504 10506 10507 10508 10510 10512 10513 10514 10515 10517 10519 10522 10524 10525 10526 10527 10528 10530 10532 10533 10534 10536 10537
10468 10469 10471 10472 10474 10477 10476 10475 10477 10480 10482 10484 10486 10486 10490 10494 10493 10491 10492 10495 10496 10497 10498 10500 10503 10505 10506 10507 10508 10510 10512 10514 10516 10516 10517 10519 10521 10523 10525 10526 10528 10529
10457 10460 10463 10464 10465 10467 10467 10466 10467 10469 10472 10475 10476 10477 10481 10485 10483 10482 10485 10487 10488 10488 10489 10490 10492 10495 10496 10497 10498 10500 10501 10504 10505 10506 10507 10509 10512 10514 10515 10517 10518 10519
10448 10451 10453 10455 10456 10457 10457 10458 10459 10460 10463 10465 10467 10469 10472 10476 10477 10476 10477 10479 10480 10480 10480 10480 10482 10484 10485 10487 10488 10490 10491 10493 10495 10496 10497 10499 10501 10504 10505 10506 10507 10508
10440 10442 10443 10445 10447 10448 10448 10448 10450 10452 10454 10455 10457 10459 10462 10466 10469 10469 10469 10471 10472 10472 10472 10471 10471 10472 10473 10476 10478 10480 10480 10482 10484 10486 10487 10488 10491 10493 10494 10494 10495 10496
10431 10432 10434 10435 10437 10438 10439 10439 10440 10441 10443 10445 10447 10449 10452 10454 10456 10458 10460 10460 10458 10458 10459 10458 10458 10460 10461 10464 10466 10468 10469 10471 10473 10475 10476 10478 10480 10481 10481 10482 10483 10485
10421 10423 10424 10425 10426 10428 10429 10430 10430 10431 10432 10434 10436 10439 10441 10441 10442 10446 10449 10448 10445 10444 10446 10447 10449 10451 10452 10453 10454 10456 10458 10459 10462 10464 10465 10467 10468 10469 10469 10470 10471 10473
10411 10412 10414 10414 10416 10417 10418 10419 10420 10421 10422 10423 10425 10428 10430 10430 10431 10434 10436 10436 10436 10437 10437 10438 10440 10442 10444 10445 10445 10446 10447 10448 10450 10451 10452 10454 10456 10456 10457 10458 10460 10462
10401 10402 10403 10403 10404 10406 10407 10408 10409 10410 10411 10413 10415 10417 10418 10420 10421 10422 10423 10425 10427 10428 10428 10429 10430 10432 10435 10436 10437 10437 10436 10436 10438 10439 10439 10441 10443 10443 10444 10446 10448 10451
10391 10392 10392 10393 10394 10395 10396 10397 10398 10399 10401 10403 10405 10406 10407 10409 10410 10411 10412 10414 10416 10418 10419 10420 10421 10423 10425 10426 10426 10427 10426 10426 10427 10427 10427 10428 10430 10430 10432 10434 10436 10439
10379 10380 10382 10383 10383 10384 10385 10386 10387 10388 10390 10392 10394 10395 10397 10398 10399 10400 10401 10403 10406 10408 10409 10410 10411 10413 10413 10414 10414 10415 10414 10415 10415 10414 10415 10416 10416 10418 10419 10421 10424 10426
10367 10369 10371 10372 10372 10373 10374 10374 10376 10378 10380 10382 10382 10383 10385 10387 10388 10389 10391 10393 10395 10397 10398 10399 10400 10401 10401 10402 10402 10402 10401 10401 10402 10402 10403 10404 10404 10405 10406 10408 10411 10413
10357 10358 10359 10360 10361 10362 10363 10363 10365 10367 10369 10370 10372 10373 10375 10376 10378 10379 10381 10382 10384 10385 10386 10386 10387 10388 10390 10391 10391 10390 10389 10389 10390 10391 10391 10392 10393 10394 10395 10396 10397 10398
10346 10347 10348 10349 10350 10351 10352 10354 10355 10356 10357 10359 10361 10363 10364 10366 10368 10369 10370 10371 10372 10373 10373 10374 10376 10377 10378 10379 10379 10378 10378 10378 10378 10379 10380 10381 10383 10384 10384 10384 10385 10385
10334 10335 10336 10338 10339 10340 10342 10343 10344 10346 10347 10348 10350 10352 10354 10356 10357 10358 10359 10360 10361 10362 10362 10363 10364 10364 10365 10366 10367 10367 10368 10367 10367 10367 10369 10370 10371 10371 10372 10372 10373 10373